Regional Weather Roundup
Issued by NWS Portland, ME

Home | Current Version | Previous Version | Text Only | Print | Product List | Glossary On
Versions: 1 2 3 4 5 6 7 8 9 10 11 12 13 14 15 16 17 18 19 20 21 22 23 24 25 26 27 28 29 30 31 32 33 34 35 36 37 38 39 40 41 42 43 44 45 46 47 48 49 50
000
ASUS41 KGYX 242310
RWRGYX
WEATHER ROUNDUP FOR MAINE AND NEW HAMPSHIRE
NATIONAL WEATHER SERVICE GRAY ME
700 PM EDT SAT JUN 24 2017

MEZ002-005-006-010-012-015-018-020-021-024-026-027-029-250000-
MAINE

CITY           SKY/WX    TMP DP  RH WIND       PRES   REMARKS
PORTLAND       MOSUNNY   82  53  36 NW10      29.66R
SANFORD        SUNNY     81  56  42 W6        29.69R
BAR HARBOR     MOSUNNY   79  59  50 W5        29.61R
WISCASSET      SUNNY     78  66  66 CALM      29.65R
ROCKLAND       MOSUNNY   80  59  48 W10       29.63R
FRYEBURG       MOSUNNY   79  57  46 VRB5      29.68R
AUGUSTA        SUNNY     79  55  43 NW6       29.65R
WATERVILLE     SUNNY     78  57  48 W5        29.62R
BANGOR         MOSUNNY   78  55  44 NW6       29.62R
GREENVILLE       N/A     71  54  54 VRB3      29.64R
MILLINOCKET    SUNNY     77  53  43 W9        29.61R
HOULTON        PTSUNNY   74  62  66 W6        29.56R
PRESQUE ISLE   SUNNY     75  57  53 W7        29.57R
FRENCHVILLE    PTSUNNY   65  54  67 N16G26    29.57R
CARIBOU        MOSUNNY   73  57  57 W5        29.54R
$$

NHZ002-005-008-009-011-012-014-250000-
NEW HAMPSHIRE

CITY           SKY/WX    TMP DP  RH WIND       PRES   REMARKS
PORTSMOUTH     MOSUNNY   82  55  39 W7        29.67R
ROCHESTER      PTSUNNY   82  54  37 W6        29.68R
NASHUA         MOSUNNY   82  60  47 W9        29.72R
MANCHESTER     MOSUNNY   83  55  38 W10       29.70R
CONCORD        SUNNY     82  56  40 W9        29.70R
LACONIA        SUNNY    N/A N/A N/A W12G17    29.71R
PLYMOUTH       FAIR      79  54  41 W5        29.70R
BERLIN         MOSUNNY   74  52  46 CALM      29.70R
WHITEFIELD     PTSUNNY   76  55  48 SW5       29.70R
JAFFREY        SUNNY     78  57  48 W8G17     29.78R
KEENE          SUNNY     79  56  45 VRB6      29.76R
LEBANON        PTSUNNY   80  50  34 W10       29.73R
MT WASHINGTON  PTSUNNY   48  47  97 W43G48      N/A
$$

VTZ005-007-008-250000-
VERMONT

CITY           SKY/WX    TMP DP  RH WIND       PRES   REMARKS
ST JOHNSBURY     N/A     77  56  48 MISG      29.68R
MONTPELIER     CLOUDY    74  52  46 VRB7G17   29.77R
BURLINGTON     PTSUNNY   79  49  34 SW12G18   29.71R
$$

MAZ007-012-024-CTZ003-RIZ002-NYZ038-NYZ072-250000-
SOUTHERN NEW ENGLAND AND NY

CITY           SKY/WX    TMP DP  RH WIND       PRES   REMARKS
BOSTON         MOSUNNY   84  60  44 W17G25    29.70R
WORCESTER      MOSUNNY   77  52  41 W9G24     29.78R
NANTUCKET      SUNNY     70  61  73 W16       29.73R
PROVIDENCE     MOSUNNY   82  57  42 W16       29.75R
HARTFORD       MOSUNNY   82  51  34 NW9       29.77R
ALBANY         MOSUNNY   78  54  43 NW10      29.77R
NEW YORK CITY  MOSUNNY   85  54  34 W13       29.79R
$$

ANZ081-ANZ082-ANZ150-NHZ014-MEZ023>029-250000-
COASTAL MARINE OBSERVATIONS

STATION/POSITION TIME  TEMP    WIND        PRES    WAVE
                       AIR SEA DIR/SP/G            HT/PER
                 (UTC) (F)     (DEG/KT/KT) (MB)    (FT/S)
MATINICUS ROCK   2200   61     270/ 18/ 19 1002.2R
ISLE OF SHOALS   2200   82     280/ 12/ 13 1003.7R
JEFFREYS LEDGE   2206      62                N/A     3/ 6
CASHES LEDGE BUO 2150   65 60              1003.3    4/ 7
GEORGES BANK BUO 2150   62 53              1004.3    7/ 8
$$

.............KEY..............
   WCI - WIND CHILL
   TC  - TEMPERATURE IN CELSIUS
   VSB - VISIBILITY IN MILES
   HX  - HEAT INDEX
   FAIR- INDICATES FEW OR NO CLOUDS BELOW 12,000 FT, WITH NO
         SIGNIFICANT WEATHER AND/OR OBSTRUCTIONS TO VISIBILITY.





USA.gov is the U.S. government's official web portal to all federal, state and local government web resources and services.